FW6122 Weather Reports


Display with metric or nautical units.
time (UTC)temp
F
wind
direction
speed
MPH
gust
MPH
rain 1hr
in
rain 24hr
in
rain mn
in
humidity
%
barometer
mb
20260507073053 45 360 0.0 0.0 0.00 0.00 0.00 68 1019.4
20260507071541 45 360 0.0 2.0 0.00 0.00 0.00 69 1019.5
20260507070041 45 360 0.0 2.0 0.00 0.00 0.00 70 1019.6
20260507064541 45 360 0.0 2.0 0.00 0.00 0.00 72 1019.6
20260507063043 45 360 0.0 2.0 0.00 0.00 0.00 73 1019.7
20260507061537 44 360 0.0 2.0 0.00 0.00 0.00 76 1019.8
20260507060042 44 360 0.0 1.0 0.00 0.00 0.00 78 1020.0
20260507054541 44 360 0.0 0.0 0.00 0.00 0.00 80 1020.1
20260507053037 44 360 0.0 0.0 0.00 0.00 0.00 81 1020.0
20260507051536 45 360 0.0 0.0 0.00 0.00 0.00 80 1019.8
20260507050039 45 360 0.0 0.0 0.00 0.00 0.00 80 1019.8
20260507044539 45 360 0.0 0.0 0.00 0.00 0.00 80 1019.8
20260507043034 46 360 0.0 0.0 0.00 0.00 0.00 81 1019.8
20260507041542 46 360 0.0 0.0 0.00 0.00 0.00 81 1019.9
20260507040034 47 360 0.0 0.0 0.00 0.00 0.00 80 1020.0
20260507034533 47 360 0.0 0.0 0.00 0.00 0.00 81 1019.8
20260507033035 48 360 0.0 0.0 0.00 0.00 0.00 83 1019.6
20260507031532 49 360 0.0 0.0 0.00 0.00 0.00 81 1019.5
20260507030031 50 360 0.0 0.0 0.00 0.00 0.00 79 1019.4
20260507024530 51 360 0.0 0.0 0.00 0.00 0.00 76 1019.4
20260507023029 53 360 0.0 0.0 0.00 0.00 0.00 70 1019.3
20260507021528 54 360 0.0 1.0 0.00 0.00 0.00 66 1019.5
20260507020028 55 18 0.0 0.0 0.00 0.00 0.00 57 1019.6
20260507014538 56 360 0.0 2.0 0.00 0.00 0.00 50 1019.5
20260507013027 57 360 1.0 4.0 0.00 0.00 0.00 44 1019.5
20260507011528 57 5 1.0 4.0 0.00 0.00 0.00 45 1019.6
20260507010026 57 34 1.0 5.0 0.00 0.00 0.00 44 1019.6
20260507004533 57 51 2.0 6.0 0.00 0.00 0.00 43 1019.6
20260507003030 58 355 1.0 6.0 0.00 0.00 0.00 41 1019.6
20260507001526 58 27 0.0 10.0 0.00 0.00 0.00 41 1019.6
20260507000026 59 340 1.0 5.0 0.00 0.00 0.00 42 1019.6
20260506234533 59 69 2.0 8.0 0.00 0.00 0.00 42 1019.7
20260506233022 58 340 3.0 11.0 0.00 0.00 0.00 40 1019.7
20260506231531 59 36 2.0 9.0 0.00 0.00 0.00 40 1019.8
20260506230018 58 281 2.0 12.0 0.00 0.00 0.00 41 1020.0
20260506224518 59 313 3.0 11.0 0.00 0.00 0.00 41 1020.1
20260506223020 58 51 5.0 11.0 0.00 0.00 0.00 41 1020.4
20260506221514 59 355 6.0 14.0 0.00 0.00 0.00 41 1020.7
20260506220013 58 56 5.0 11.0 0.00 0.00 0.00 45 1021.0
20260506214512 59 36 4.0 9.0 0.00 0.00 0.00 41 1021.2
20260506213010 58 26 3.0 9.0 0.00 0.00 0.00 43 1021.4
20260506211513 58 42 3.0 9.0 0.00 0.00 0.00 45 1021.5
20260506210008 57 89 4.0 13.0 0.00 0.00 0.00 45 1021.5
20260506204506 57 42 5.0 11.0 0.00 0.00 0.00 45 1021.6
20260506203003 57 17 1.0 8.0 0.00 0.00 0.00 47 1021.6
20260506201610 56 42 3.0 11.0 0.00 0.00 0.00 45 1021.7
20260506194610 55 24 1.0 11.0 0.00 0.00 0.00 48 1021.9
20260506193053 55 15 2.0 10.0 0.00 0.00 0.00 49 1022.0
20260506191553 55 329 2.0 9.0 0.00 0.00 0.00 49 1022.2
20260506190054 56 310 3.0 8.0 0.00 0.00 0.00 49 1022.3
20260506184556 54 51 3.0 13.0 0.00 0.00 0.00 48 1022.4
20260506183058 54 34 4.0 11.0 0.00 0.00 0.00 48 1022.4
20260506181543 53 9 1.0 10.0 0.00 0.00 0.00 50 1022.3
20260506180047 53 46 2.0 6.0 0.00 0.00 0.00 49 1022.4
20260506174542 53 34 2.0 9.0 0.00 0.01 0.00 51 1022.3
20260506173035 52 355 3.0 9.0 0.00 0.01 0.00 50 1022.4
20260506171538 52 349 1.0 6.0 0.00 0.01 0.00 56 1022.2
20260506170034 52 5 1.0 6.0 0.00 0.01 0.00 57 1022.0
20260506164526 51 84 1.0 9.0 0.00 0.01 0.00 59 1021.9
20260506163023 49 360 1.0 8.0 0.00 0.01 0.00 61 1021.9
20260506161520 49 5 2.0 8.0 0.00 0.01 0.00 62 1021.9
20260506160019 48 121 0.0 8.0 0.00 0.02 0.00 65 1021.7
20260506154515 48 91 1.0 5.0 0.00 0.02 0.00 66 1021.7
20260506153013 47 95 0.0 4.0 0.00 0.02 0.00 67 1021.6
20260506151511 47 36 1.0 5.0 0.00 0.02 0.00 68 1021.6
20260506150006 46 98 1.0 4.0 0.00 0.05 0.00 74 1021.5
20260506144502 43 9 0.0 4.0 0.00 0.05 0.00 89 1021.5
20260506143108 41 350 0.0 4.0 0.00 0.05 0.00 96 1021.3
20260506141554 38 30 0.0 5.0 0.00 0.05 0.00 96 1021.2
20260506140050 35 289 0.0 0.0 0.00 0.05 0.00 96 1021.2
20260506134548 34 289 0.0 0.0 0.00 0.09 0.00 95 1020.9
20260506133045 33 289 0.0 0.0 0.00 0.09 0.00 95 1020.7
20260506131543 33 289 0.0 0.0 0.00 0.09 0.00 95 1020.4
20260506130042 33 289 0.0 0.0 0.00 0.09 0.00 95 1020.1
20260506124541 33 289 0.0 0.0 0.00 0.14 0.00 95 1020.0
20260506123039 33 289 0.0 0.0 0.00 0.14 0.00 95 1019.8
20260506121537 33 289 0.0 0.0 0.00 0.14 0.00 95 1019.7
20260506120042 33 289 0.0 0.0 0.00 0.14 0.00 95 1019.6
20260506114535 33 289 0.0 0.0 0.00 0.16 0.00 95 1019.6
20260506113035 33 289 0.0 0.0 0.00 0.16 0.00 95 1019.5
20260506111533 33 289 0.0 0.0 0.00 0.16 0.00 95 1019.4
20260506110033 33 289 0.0 0.0 0.00 0.16 0.00 95 1019.3
20260506104531 33 289 0.0 0.0 0.00 0.18 0.00 95 1019.1
20260506103035 33 289 0.0 0.0 0.00 0.18 0.00 95 1019.1
20260506101528 33 289 0.0 0.0 0.00 0.18 0.00 95 1019.0
20260506100029 33 289 0.0 0.0 0.00 0.18 0.00 95 1018.9
20260506094526 32 289 0.0 0.0 0.00 0.20 0.00 95 1019.0
20260506093025 31 289 0.0 0.0 0.00 0.20 0.00 95 1018.8
20260506091524 31 289 0.0 0.0 0.00 0.20 0.00 95 1019.0
20260506090038 31 289 0.0 0.0 0.00 0.20 0.00 94 1019.0
20260506084523 31 289 0.0 0.0 0.00 0.20 0.00 94 1018.9
20260506083019 32 289 0.0 0.0 0.00 0.20 0.00 94 1019.1
20260506081515 33 289 0.0 0.0 0.00 0.20 0.00 94 1019.0